Bridgeport, CT

6:25 AM EDT on April 28, 2017 (GMT -0400)
Sikorsky Memorial

Weather History for KBDR - May, 2014

Change the Weather History Date:

Tuesday, May 27, 2014

  Actual Average Record
Temperature  
Mean Temperature 72 °F 63 °F  
Max Temperature 87 °F 71 °F 87 °F (2014)
Min Temperature 57 °F 54 °F 36 °F (1961)
Degree Days  
Heating Degree Days 0 4  
Month to date heating degree days 112 192  
Since 1 July heating degree days 5592 5347  
Cooling Degree Days 7 1  
Month to date cooling degree days 23 13  
Year to date cooling degree days 23 15  
Growing Degree Days 22 (Base 50)    
Moisture  
Dew Point 57 °F    
Average Humidity 63    
Maximum Humidity 90    
Minimum Humidity 35    
Precipitation  
Precipitation 0.00 in 0.14 in 1.50 in (1961)
Month to date precipitation 3.96 3.26  
Year to date precipitation 21.62 17.33  
Snow  
Snow 0.00 in 0.00 in T in (1961)
Month to date snowfall 0.0 0.0  
Since 1 July snowfall 57.4 27.6  
Snow Depth 0.00 in    
Sea Level Pressure  
Sea Level Pressure 29.83 in    
Wind  
Wind Speed 9 mph (SSW)    
Max Wind Speed 29 mph    
Max Gust Speed 34 mph    
Visibility 9 miles    
Events      
T = Trace of Precipitation, MM = Missing Value Source: NWS Daily Summary

Daily Weather History Graph

Daily Weather History Graph

Search for Another Location

Airport or City:

Trip Planner

Search our weather history database for the weather conditions in past years. The results will help you decide how hot, cold, wet, or windy it might be!

Date:

Astronomy

May. 27, 2014 Rise Set
Actual Time 5:24 AM EDT 8:15 PM EDT
Civil Twilight 4:52 AM EDT 8:47 PM EDT
Nautical Twilight 4:11 AM EDT 9:28 PM EDT
Astronomical Twilight 3:24 AM EDT 10:16 PM EDT
Moon 4:46 AM EDT (5/27) 7:13 PM EDT (5/27)
Length of Visible Light 15h 55m
Length of Day
14h 50m
Waning Crescent, 1% of the Moon is Illuminated
May 27
Waning Crescent
May 28
New
Jun 5
First Quarter
Jun 13
Full
Jun 19
Last Quarter

Hourly Weather History & Observations

Time (EDT) Temp. Heat Index Dew Point Humidity Pressure Visibility Wind Dir Wind Speed Gust Speed Precip Events Conditions
12:52 AM 66.9 °F - 57.0 °F 70% 29.87 in 10.0 mi WSW 4.6 mph - N/A   Clear
1:52 AM 66.0 °F - 57.0 °F 73% 29.86 in 10.0 mi WSW 4.6 mph - N/A   Clear
2:52 AM 64.0 °F - 57.0 °F 78% 29.86 in 10.0 mi SSW 8.1 mph - N/A   Clear
3:52 AM 64.0 °F - 57.0 °F 78% 29.86 in 10.0 mi SW 3.5 mph - N/A   Clear
4:52 AM 61.0 °F - 55.9 °F 83% 29.86 in 10.0 mi Calm Calm - N/A   Clear
5:52 AM 63.0 °F - 57.9 °F 84% 29.87 in 10.0 mi Calm Calm - N/A   Clear
6:52 AM 66.9 °F - 57.0 °F 70% 29.88 in 10.0 mi SW 4.6 mph - N/A   Clear
7:52 AM 71.1 °F - 55.9 °F 59% 29.88 in 10.0 mi SW 5.8 mph - N/A   Clear
8:52 AM 71.1 °F - 57.0 °F 61% 29.88 in 10.0 mi SW 8.1 mph - N/A   Clear
9:52 AM 71.1 °F - 57.0 °F 61% 29.87 in 10.0 mi WSW 5.8 mph - N/A   Clear
10:52 AM 75.0 °F - 57.0 °F 53% 29.86 in 10.0 mi SSW 9.2 mph - N/A   Clear
11:52 AM 77.0 °F - 55.9 °F 48% 29.86 in 10.0 mi SW 12.7 mph - N/A   Partly Cloudy
12:52 PM 82.0 °F 81.6 °F 55.9 °F 41% 29.84 in 10.0 mi SSW 12.7 mph - N/A   Clear
1:52 PM 82.9 °F 82.4 °F 57.0 °F 41% 29.82 in 10.0 mi SSW 12.7 mph - N/A   Clear
2:52 PM 86.0 °F 84.7 °F 55.9 °F 36% 29.79 in 10.0 mi SW 13.8 mph - N/A   Clear
3:52 PM 81.0 °F 80.8 °F 55.9 °F 42% 29.77 in 10.0 mi SW 12.7 mph - N/A   Clear
4:52 PM 82.0 °F 82.7 °F 61.0 °F 49% 29.77 in 10.0 mi SSW 16.1 mph - N/A   Clear
5:52 PM 80.1 °F 81.1 °F 61.0 °F 52% 29.75 in 10.0 mi SSW 11.5 mph - N/A   Clear
6:52 PM 73.0 °F - 61.0 °F 66% 29.74 in 10.0 mi SW 5.8 mph - N/A   Clear
7:52 PM 73.0 °F - 61.0 °F 66% 29.76 in 10.0 mi West 3.5 mph - N/A   Scattered Clouds
8:25 PM 73.0 °F - 63.0 °F 71% 29.79 in 10.0 mi ENE 23.0 mph 28.8 mph N/A   Overcast
8:36 PM 61.0 °F - 54.0 °F 78% 29.80 in 8.0 mi ENE 23.0 mph 34.5 mph N/A   Overcast
8:52 PM 62.1 °F - 57.0 °F 84% 29.80 in 7.0 mi East 18.4 mph - N/A   Overcast
9:52 PM 61.0 °F - 57.9 °F 90% 29.83 in 6.0 mi ENE 11.5 mph - N/A   Scattered Clouds
10:11 PM 60.1 °F - 55.9 °F 86% 29.84 in 6.0 mi ENE 15.0 mph - N/A   Mostly Cloudy
10:24 PM 59.0 °F - 55.4 °F 88% 29.85 in 6.0 mi ENE 13.8 mph - N/A   Overcast
10:52 PM 57.9 °F - 54.0 °F 87% 29.86 in 9.0 mi East 20.7 mph - N/A   Overcast
11:13 PM 57.0 °F - 54.0 °F 89% 29.85 in 9.0 mi East 18.4 mph - N/A   Scattered Clouds
11:52 PM 57.0 °F - 54.0 °F 89% 29.85 in 10.0 mi East 13.8 mph - N/A   Mostly Cloudy